Terminal Aerodrome Forecast
Issued by NWS Sterling, VA

Current Version | Previous Version | Graphics & Text | Print | Product List | Glossary On
Versions: 1 2 3 4 5 6 7 8 9 10 11 12 13 14 15 16 17 18 19 20 21 22 23 24 25 26 27 28 29 30
000
FTUS41 KLWX 302331
TAFDCA
TAF
KDCA 302331Z 0100/0124 20009G17KT P6SM BKN050
     FM010600 23008KT P6SM VCSH BKN060
     FM010800 24007KT P6SM SCT060 SCT100
     FM011300 27009KT P6SM SCT250
     FM011700 26010G17KT P6SM SCT050=

USA.gov is the U.S. government's official web portal to all federal, state and local government web resources and services.